User: anonymous   Login
Location: Austin
(30.3000°N, 97.7500°W)
Time: 20:57:33
(UTC-05:00)
Language:

CZ-3 Stage 3 - Orbit

View from above orbital plane
View from above orbital plane
View from above satellite
View from above satellite

Ground track
Ground track

The orbit data is extracted from the following two-line orbital elements,

1 16528U 86010B   24148.17469839  .00000043  00000-0  33264-4 0  9992
2 16528  30.5253 146.2156 7160132 157.0064 266.1455  2.32124753271862
Epoch (UTC): 27 May 2024 04:11:33
Eccentricity: 0.7160132
inclination: 30.5253°
perigee height: 464 km
apogee height: 34968 km
right ascension of ascending node: 146.2156°
argument of perigee: 157.0064°
revolutions per day: 2.32124753
mean anomaly at epoch: 266.1455°
orbit number at epoch: 27186

The dashed part of the orbit path shows where the satellite is in the earth's shadow,  

DLR